Location: Huberhof
(49.2050°N, 7.4980°E)
Time: 23:33:33
(UTC+00:00)

Cosmos 1726 Rocket - Pass Details

Date: 29 October 2020
Orbit: 603 x 629 km, 82.5° (Epoch: 26 November)

Event Time Altitude Azimuth Distance (km) Brightness Sun altitude
Rises 17:23:44 0° 196° (SSW) 2,861 7.3 -12.0°
Reaches altitude 10° 17:25:57 10° 199° (SSW) 1,965 6.5 -12.4°
Maximum altitude 17:30:16 65° 282° (WNW) 679 4.0 -13.1°
Drops below altitude 10° 17:34:40 10° 5° (N) 1,997 6.1 -13.8°
Sets 17:36:57 0° 8° (N) 2,912 6.9 -14.2°
